Regional Weather Roundup
Issued by NWS Sioux Falls, SD

Home | Current Version | Previous Version | Graphics & Text | Print | Product List | Glossary On
Versions: 1 2 3 4 5 6 7 8 9 10 11 12 13 14 15 16 17 18 19 20 21 22 23 24 25 26 27 28 29 30 31 32 33 34 35 36 37 38 39 40 41 42 43 44 45 46 47 48 49 50
000
ASUS43 KFSD 040910
RWRFSD

WEATHER ROUNDUP FOR SE SOUTH DAKOTA/SW MINNESOTA/NW IOWA
NATIONAL WEATHER SERVICE SIOUX FALLS SD
400 AM CDT FRI SEP 04 2015

NOTE: "FAIR" INDICATES FEW OR NO CLOUDS BELOW 12,000 FEET WITH NO
SIGNIFICANT WEATHER AND OR OBSTRUCTIONS TO VISIBILITY.


SDZ038>040-050-052>070-041000-
SOUTHEAST SOUTH DAKOTA

CITY           SKY/WX    TMP DP  RH WIND       PRES   REMARKS
BROOKINGS      PTCLDY    73  68  83 SE13G20   29.82S
CHAMBERLAIN    CLOUDY    74  68  83 S8        29.72R
HURON          PTCLDY    75  70  84 SE13      29.71S
MADISON        FAIR      72  72 100 S9        29.81S
MITCHELL       PTCLDY    75  69  81 S12       29.74R
SIOUX FALLS    CLEAR     75  68  78 S12       29.81R
WINNER         LGT RAIN  76  59  55 W25G35    29.77R
YANKTON        PTCLDY    75  66  73 S7        29.77R
$$

MNZ071-072-080-081-089-090-097-098-041000-
SOUTHWEST MINNESOTA

CITY           SKY/WX    TMP DP  RH WIND       PRES   REMARKS
FAIRMONT       PTCLDY    72  64  78 S8        29.89R
JACKSON        PTCLDY    72  70  94 S8        29.89S
LUVERNE        CLEAR     73  68  83 S7        29.84S
MARSHALL       PTCLDY    72  66  83 SE9       29.83F
MONTEVIDEO     PTCLDY    73  73 100 S8        29.83S
PIPESTONE      PTCLDY    73  70  88 S8        29.84S
REDWOOD FALLS  PTCLDY    74  71  91 SE8       29.84S
TRACY          PTCLDY    75  71  89 S12       29.84S
WINDOM         PTCLDY    73  70  88 S8        29.87S
WORTHINGTON    PTCLDY    72  66  83 S10       29.87S
$$

IAZ001>003-012>014-020>022-031-032-NEZ013-014-SDZ071-041000-
NORTHWEST IOWA

CITY           SKY/WX    TMP DP  RH WIND       PRES   REMARKS
CHEROKEE       CLEAR     71  70  95 S6        29.87S
DENISON        CLEAR     73  68  83 S10G16    29.87S
ESTHERVILLE    PTCLDY    71  69  93 S9        29.89R
LE MARS        CLEAR     75  68  78 SE7       29.84S
ORANGE CITY    CLEAR     73  70  88 S7        29.84F
SHELDON        PTCLDY    73  70  88 S9        29.84S
SIOUX CITY     PTCLDY    72  67  84 SE9       29.82S
SPENCER        PTCLDY    72  68  87 S7        29.88S
STORM LAKE     PTCLDY    70  68  94 SE9       29.90S
$$

ABBREVIATIONS USED IN REMARKS
   TC - TEMPERATURE IN CELSIUS
  WCI - WIND CHILL INDEX
   HX - HEAT INDEX
  VSB - VISIBILITY




USA.gov is the U.S. government's official web portal to all federal, state and local government web resources and services.